Home   Weather   Rancho Cucamonga   Past weeks

Flag for USA Past Weather in Rancho Cucamonga, California, USA — Yesterday and Last 2 Weeks

Now
58 °F

Fog.


Feels Like: 57 °F
Forecast: 58 / 85 °F
Wind: 6 mph from West

Location: Ontario International Airport

Current Time: May 30, 2017 at 2:27:52 am

Latest Report: May 30, 2017 at 1:53 am


Visibility: 5 mi

Pressure: 29.88 "Hg

Humidity: 90%

Dew Point: 55 °F

Location of Rancho CucamongaLocation

Past Weather in Rancho Cucamonga — Graph

°F

Rancho Cucamonga Temperature Yesterday

Maximum temperature yesterday: 82 °F (at 3:53 pm)
Minimum temperature yesterday: 57 °F (at 3:53 am)
Average temperature yesterday: 67 °F

High & Low Weather Summary for the Past Weeks

 TemperatureHumidityPressure
High95 °F (May 20, 2:53 pm)93% (May 18, 3:53 am)30.04 "Hg (May 18, 3:53 am)
Low49 °F (May 18, 5:53 am)8% (May 20, 1:53 pm)29.74 "Hg (May 24, 4:53 pm)
Average68 °F54%29.89 "Hg
* Reported May 15 12:53 am — May 30 12:53 am, Rancho Cucamonga. Weather by CustomWeather, © 2017

Note: Actual official high and low records may vary slightly from our data, if they occured in-between our weather recording intervals... More about our weather records

Advertising

Rancho Cucamonga Weather History for the Previous 24 Hours

Scroll right to see more
 ConditionsComfort  
Time TempWeatherWind HumidityBarometerVisibility
12:53 am
Tue, May 30
58 °FFog.5 mph90%29.88 "Hg6 mi
12:10 am59 °FPassing clouds.8 mph87%29.92 "Hg10 mi
11:53 pm
Mon, May 29
59 °FPartly cloudy.8 mph84%29.89 "Hg10 mi
10:53 pm60 °FPassing clouds.8 mph80%29.89 "Hg10 mi
9:53 pm62 °FPassing clouds.12 mph78%29.88 "Hg10 mi
8:53 pm65 °FPassing clouds.9 mph70%29.85 "Hg10 mi
7:53 pm69 °FScattered clouds.9 mph61%29.83 "Hg10 mi
6:53 pm74 °FPartly sunny.12 mph52%29.82 "Hg10 mi
5:53 pm77 °FPartly sunny.12 mph47%29.81 "Hg10 mi
4:53 pm80 °FPartly sunny.12 mph41%29.81 "Hg10 mi
3:53 pm82 °FPartly sunny.13 mph35%29.81 "Hg10 mi
2:53 pm80 °FPartly sunny.9 mph38%29.84 "Hg10 mi
1:53 pm78 °FPartly sunny.10 mph42%29.86 "Hg10 mi
12:53 pm77 °FPartly sunny.10 mph45%29.88 "Hg10 mi
11:53 am73 °FPartly sunny.9 mph51%29.88 "Hg10 mi
10:53 am70 °FPartly sunny.8 mph57%29.88 "Hg10 mi
9:53 am69 °FPartly sunny.9 mph59%29.88 "Hg8 mi
8:53 am65 °FPartly sunny.5 mph68%29.89 "Hg6 mi
7:53 am60 °FScattered clouds.3 mph83%29.89 "Hg5 mi
6:53 am58 °FFog.No wind90%29.89 "Hg5 mi
5:53 am57 °FFog.6 mph87%29.89 "Hg8 mi
4:53 am57 °FPassing clouds.6 mph87%29.88 "Hg10 mi
3:53 am57 °FPassing clouds.7 mph83%29.88 "Hg10 mi
2:53 am59 °FPassing clouds.5 mph81%29.88 "Hg10 mi
Weather by CustomWeather, © 2017

See weather overviewHow to use our weather pages